Regional Weather Roundup
Issued by NWS

Home | Current Version | Previous Version | Graphics & Text | Print | Product List | Glossary On
Versions: 1 2 3 4 5 6 7 8 9 10 11 12 13 14 15 16 17 18 19 20 21 22 23 24 25 26 27
000
ASUS45 KCYS 302310
RWRWY

WYOMING REGIONAL WEATHER ROUNDUP
NATIONAL WEATHER SERVICE CHEYENNE WY
500 PM MDT SAT JUL 30 2016

NOTE:  "FAIR" INDICATES FEW OR NO CLOUDS BELOW 12,000 FEET
WITH NO SIGNIFICANT WEATHER AND/OR OBSTRUCTIONS TO VISIBILITY.

WYZ001-310000-
YELLOWSTONE NATIONAL PARK

CITY           SKY/WX    TMP DP  RH WIND       PRES   REMARKS
LK YELLOWSTONE   N/A     67  48  50 CALM      30.18F
W YELLOWSTONE  NOT AVBL

$$
WYZ002>013-054>058-071-098>099-310000-
NORTHERN WYOMING

CITY           SKY/WX    TMP DP  RH WIND       PRES   REMARKS
JACKSON        SUNNY     82  41  23 S15G23    30.07F
CODY           FAIR      81  39  22 W21G38    29.91R
GREYBULL       FAIR      98  34  10 NW6       29.75F HX  92
WORLAND        FAIR      97  39  13 NE10      29.77F HX  92
SHERIDAN       FAIR      99  42  14 NW8       29.77F HX  94
BUFFALO        FAIR      96  34  11 N8        29.86R HX  91
GILLETTE       FAIR      89  47  23 E13       29.80F THUNDER
HULETT         FAIR      88  46  23 SE7       29.84F
NEWCASTLE      FAIR      90  41  18 SE8G16    29.88F

$$
WYZ014>020-022>026-101>103-310000-
CENTRAL WYOMING

CITY           SKY/WX    TMP DP  RH WIND       PRES   REMARKS
BIG PINEY      FAIR      72  48  42 MISG      30.16F
PINEDALE       FAIR      79  36  21 W10       30.16F
DUBOIS         FAIR      77  32  19 W24G33    30.10F
LANDER         FAIR      90  38  16 W22G29    29.96R
RIVERTON       PTSUNNY   89  31  12 SW13G29   29.93R
CASPER         FAIR      95  26   8 W16G22    29.89F
DOUGLAS        FAIR      95  41  15 SE16G22   29.89F HX  91

$$
WYZ021-027>030-104>119-310000-
SOUTHERN WYOMING

CITY           SKY/WX    TMP DP  RH WIND       PRES   REMARKS
EVANSTON       PTSUNNY   80  39  23 NE8       30.16F
KEMMERER         N/A    N/A N/A N/A W21G26    30.18F
FORT BRIDGER   FAIR      86  36  17 NW10      30.19S
ROCK SPRINGS   CLOUDY    73  46  38 SW17      30.17S
DIXON          FAIR      89  32  13 CALM      30.10F
RAWLINS        FAIR      88  32  13 SW14G23   30.06F
SARATOGA       FAIR      84  32  15 S16G29    30.12F
LARAMIE        FAIR      83  28  13 W17G28    30.12S
CHEYENNE       FAIR      85  46  25 S9        30.04F
TORRINGTON     FAIR      90  56  31 E20G26    29.87F
PINE BLUFFS    FAIR      86  50  28 MISG      29.99F

$$




USA.gov is the U.S. government's official web portal to all federal, state and local government web resources and services.